This is the latest recevied weather packets stored in our database for station/object SR8WXB-1. If no packets are shown the sender has not sent any weather packets the latest 1 day(s).
| Time | Temp. | Humidity | Pressure | Rain* | Wind** | Luminosity | Snow |
|---|---|---|---|---|---|---|---|
| 1778075237 | 21.67° C | 100% | 938.2 hPa | - | - | - | - |
| 1778074994 | 21.67° C | 100% | 938.3 hPa | - | - | - | - |
| 1778074755 | 21.67° C | 100% | 938.3 hPa | - | - | - | - |
| 1778074511 | 21.67° C | 100% | 938.3 hPa | - | - | - | - |
| 1778074031 | 21.11° C | 100% | 938.3 hPa | - | - | - | - |
| 1778073788 | 21.11° C | 100% | 938.4 hPa | - | - | - | - |
| 1778073548 | 21.11° C | 100% | 938.3 hPa | - | - | - | - |
| 1778073068 | 21.11° C | 100% | 938.4 hPa | - | - | - | - |
| 1778072585 | 21.11° C | 100% | 938.4 hPa | - | - | - | - |
| 1778072097 | 21.11° C | 100% | 938.5 hPa | - | - | - | - |
| 1778071857 | 21.11° C | 100% | 938.5 hPa | - | - | - | - |
| 1778071617 | 20.56° C | 100% | 938.5 hPa | - | - | - | - |
| 1778071374 | 20.56° C | 100% | 938.5 hPa | - | - | - | - |
| 1778071135 | 20.56° C | 100% | 938.5 hPa | - | - | - | - |
| 1778070894 | 20.56° C | 100% | 938.5 hPa | - | - | - | - |
| 1778070654 | 20.56° C | 100% | 938.5 hPa | - | - | - | - |
| 1778070414 | 20° C | 100% | 938.4 hPa | - | - | - | - |
| 1778070171 | 20.56° C | 100% | 938.5 hPa | - | - | - | - |
| 1778069931 | 20.56° C | 100% | 938.5 hPa | - | - | - | - |
| 1778069211 | 20.56° C | 100% | 938.5 hPa | - | - | - | - |
| 1778068008 | 20° C | 100% | 938.7 hPa | - | - | - | - |
| 1778067285 | 20.56° C | 100% | 938.6 hPa | - | - | - | - |
| 1778066802 | 21.11° C | 100% | 938.8 hPa | - | - | - | - |
| 1778066559 | 20.56° C | 100% | 938.8 hPa | - | - | - | - |
| 1778064397 | 18.89° C | 100% | 938.6 hPa | - | - | - | - |
* Rain since midnight (hover to see other rain measurements)
** Current wind speed in m/s (hover to see current wind gust speed)